Theta_e
295 293 291 291 290 290 291 290 291 297 297 301 301 298 301 305 298 296 302 309 309 312 315 316 316 316 318 321 322 324 325 324 325 325 324 324 325 326 327 328 330 331 332 332 334 337 340 341 341 342 344 344 344 345 345 345 347 347 349 348 346 346 346 346 347 347 348 349 350 349 347 346 347 348 350 350 352 351 351 351 350 351 351 350 350 350 351
292 292 293 291 289 290 290 292 296 300 299 300 301 303 304 303 300 300 308 309 311 315 316 316 317 319 321 322 323 323 322 322 322 323 323 324 324 324 325 327 328 330 331 332 333 334 336 339 340 341 342 341 341 340 340 342 343 346 347 346 346 345 344 344 345 348 347 348 347 347 346 345 345 347 349 350 349 351 351 350 349 351 352 351 350 349 349
291 292 294 293 290 289 290 290 291 294 303 305 306 306 307 309 307 309 310 309 309 316 318 317 318 320 321 321 321 321 321 322 322 322 322 323 324 324 325 326 327 328 330 331 332 332 333 335 336 336 337 338 338 338 339 340 340 343 344 343 343 343 343 345 345 346 347 347 347 346 345 345 345 346 347 350 350 350 349 349 349 350 350 348 347 347 347
288 290 291 292 290 288 289 289 290 291 292 302 303 303 306 305 305 307 308 306 307 314 317 317 317 318 319 319 319 319 320 322 322 321 321 323 324 324 324 325 326 328 328 329 330 331 332 333 334 334 334 334 334 335 337 338 340 340 339 339 339 340 342 343 344 346 348 347 347 347 346 347 347 347 347 346 347 351 349 347 348 348 349 349 349 348 347
287 291 292 291 287 286 287 287 289 291 294 296 303 306 311 310 311 307 305 307 314 315 317 314 314 316 317 318 318 318 319 320 321 320 321 321 323 324 325 325 326 327 329 329 329 329 330 330 331 332 332 331 331 332 333 335 336 336 337 337 338 338 339 341 342 344 345 346 347 347 347 347 347 347 348 347 347 348 349 350 349 348 348 348 348 348 348
285 289 291 292 286 281 284 291 293 293 296 303 303 304 306 311 310 307 309 312 316 316 315 314 313 315 316 317 318 320 319 318 318 319 320 321 322 323 322 322 323 325 327 327 327 328 328 329 330 330 331 329 329 330 330 331 331 332 331 333 334 334 335 337 340 341 342 343 344 345 346 346 346 346 346 346 347 349 349 349 347 347 347 347 346 347 348
286 288 288 287 282 283 292 294 295 295 293 304 304 304 303 302 306 310 312 314 315 316 316 316 316 317 318 319 318 319 319 319 318 318 318 319 319 318 318 319 322 322 323 325 325 326 328 328 327 327 327 328 327 327 327 327 328 328 328 329 329 331 332 334 335 336 335 335 338 341 344 345 345 346 345 345 346 347 348 348 347 346 347 347 347 348 347
289 285 283 278 281 289 293 293 297 303 302 304 306 304 304 303 304 311 312 314 315 316 316 317 317 317 317 318 318 318 319 319 318 317 317 317 317 316 318 318 320 321 322 323 324 325 329 327 327 328 327 328 327 326 327 327 327 327 327 327 328 329 329 330 331 332 333 333 333 334 337 339 340 342 344 345 345 347 347 346 348 349 348 349 348 348 348
287 286 283 286 289 290 291 292 295 295 292 293 298 297 300 304 306 311 312 313 315 315 316 315 316 317 317 314 313 317 317 316 317 318 317 317 315 316 317 318 318 320 322 322 323 324 323 324 324 325 325 324 323 322 321 322 322 323 324 324 326 327 329 329 329 329 330 330 331 331 333 334 335 337 339 342 345 348 345 345 346 347 347 348 349 348 349
291 287 284 282 280 280 285 292 295 298 298 299 298 301 299 304 308 311 313 312 314 314 314 314 315 316 312 308 309 314 315 315 313 313 313 314 315 316 316 317 318 319 320 320 322 321 321 321 322 322 322 321 320 319 319 319 319 320 321 321 324 326 326 328 329 330 330 329 328 330 330 331 333 335 338 341 344 348 345 344 345 347 349 349 351 351 351
286 288 285 283 282 284 289 293 297 299 299 300 299 301 295 301 305 312 313 313 313 313 313 313 315 312 308 308 310 313 313 312 312 311 312 314 314 315 316 317 316 316 317 318 319 320 320 319 320 321 320 319 318 318 318 317 318 317 318 320 321 323 325 327 328 328 329 329 328 328 329 330 332 334 336 338 342 346 346 345 345 346 346 342 342 343 346
288 285 286 286 287 289 296 296 298 300 299 300 302 293 291 300 304 311 312 312 313 313 314 314 313 311 307 308 310 313 313 311 311 312 312 312 313 314 316 316 317 318 320 318 316 317 317 318 319 318 319 319 320 316 316 317 316 317 318 319 321 323 324 325 326 328 328 329 329 329 329 329 330 332 338 342 343 344 344 344 343 344 344 341 338 340 343
289 289 283 287 291 297 300 299 300 302 301 301 293 288 295 302 303 310 312 312 313 314 314 314 311 303 307 313 314 313 310 310 310 312 313 313 314 313 314 316 319 314 314 314 314 315 316 317 318 317 316 315 316 317 316 315 316 317 318 320 321 322 323 324 324 325 327 327 327 328 330 329 330 331 333 336 339 338 337 337 338 339 341 341 338 337 339
283 282 284 283 288 295 299 302 303 303 297 291 286 293 298 301 307 311 313 311 312 312 309 305 305 307 311 312 309 308 309 309 311 311 311 312 313 315 318 318 315 312 312 312 312 313 314 316 317 316 316 316 315 314 314 314 316 317 318 319 321 322 322 322 324 323 325 327 327 329 331 329 327 327 329 332 333 334 334 334 333 333 335 336 334 334 335
282 280 280 282 282 294 302 302 299 302 295 289 290 295 300 302 310 311 311 311 309 308 305 307 307 308 308 308 308 309 310 310 310 311 311 311 312 312 312 312 315 313 310 310 311 311 312 313 314 316 317 316 314 313 312 313 315 318 319 319 320 321 321 321 323 323 324 324 325 327 331 330 327 326 327 328 329 330 330 330 330 330 331 332 331 331 330
280 280 282 282 288 295 301 300 295 298 301 301 299 299 301 304 309 311 309 309 309 308 307 307 308 308 308 308 310 310 311 311 311 311 311 311 311 311 312 312 312 313 310 310 310 311 312 313 312 314 316 316 316 314 312 315 317 319 317 318 319 320 321 320 320 322 323 324 325 325 329 330 329 326 326 327 327 327 327 328 328 328 329 329 328 326 326
288 288 284 289 293 297 301 302 301 302 304 303 303 301 301 304 306 306 311 309 309 310 310 310 309 309 309 309 311 310 310 310 310 309 309 310 310 311 311 312 314 311 310 309 310 310 311 312 312 313 314 315 316 313 313 317 316 316 318 320 320 318 317 318 319 319 321 322 324 325 326 328 329 328 327 327 324 325 326 325 326 325 327 328 325 325 323
294 295 295 298 300 301 302 303 303 302 302 303 303 303 303 301 302 305 310 308 308 310 312 310 309 310 311 310 310 311 311 309 309 310 309 309 311 311 311 311 312 310 310 310 310 310 310 311 312 314 313 314 314 313 315 316 315 315 319 320 321 318 317 318 317 319 319 322 323 322 324 325 329 327 326 328 326 324 324 325 325 325 327 326 323 323 321
289 288 294 298 298 300 302 302 304 304 304 302 302 301 300 302 304 304 306 306 306 307 309 309 306 307 309 307 306 307 307 307 307 307 308 309 310 310 309 311 312 309 310 309 310 311 310 310 312 313 313 314 314 315 315 315 315 316 321 321 320 318 315 316 317 319 319 323 322 320 322 322 324 327 327 323 325 325 325 324 324 325 323 323 322 321 320
290 291 295 298 300 301 302 302 302 302 303 302 303 302 302 302 304 305 308 308 307 308 307 306 305 306 307 306 305 305 305 306 306 307 308 308 309 310 310 311 310 309 309 309 310 311 310 310 312 313 313 313 313 314 315 315 315 318 320 320 316 315 315 316 318 321 320 324 322 319 320 322 322 322 323 323 322 323 324 323 322 322 322 322 320 319 318
293 295 298 297 298 300 302 303 304 304 303 301 303 303 302 302 302 303 305 309 309 309 308 309 307 305 306 307 307 306 306 306 306 307 307 309 309 309 308 309 310 308 309 310 310 311 310 310 312 312 312 313 313 313 314 315 316 318 318 317 316 315 316 317 318 322 322 320 320 320 320 321 321 322 322 321 321 321 322 325 324 321 320 321 321 319 319
287 291 296 297 296 293 298 301 302 304 305 305 306 306 305 304 303 302 301 302 305 308 309 308 307 306 306 307 307 306 306 307 307 307 308 308 308 307 308 309 309 311 312 310 311 311 309 310 312 312 311 312 312 313 313 314 315 316 317 315 314 314 317 317 320 321 321 319 318 320 319 320 321 323 324 313 318 323 324 323 312 304 308 318 319 319 319
291 293 294 296 295 296 299 301 303 304 305 305 305 305 306 306 306 303 302 301 302 305 306 309 308 307 307 307 307 306 306 307 307 308 308 307 307 306 307 307 308 309 309 312 312 311 310 312 312 312 311 311 311 311 312 312 313 313 314 314 313 313 316 317 320 321 319 319 320 319 319 319 319 322 322 319 305 306 312 316 310 304 295 297 302 307 319
297 298 299 298 298 300 301 302 303 305 306 306 305 306 307 307 306 305 305 304 302 301 302 305 309 308 307 307 307 306 306 306 306 307 308 307 307 307 308 308 308 309 310 311 311 311 310 312 311 311 311 310 310 311 311 311 311 311 312 312 311 313 315 316 317 319 317 317 318 318 317 318 319 321 319 318 319 310 305 306 306 302 302 302 300 302 305
301 302 300 301 300 301 302 303 304 305 308 307 305 305 307 307 308 307 305 305 305 303 302 302 303 306 307 306 307 306 306 306 307 307 309 309 307 307 306 308 309 309 310 310 310 310 310 310 309 310 309 310 310 310 309 310 310 310 310 311 310 312 315 314 314 315 315 315 315 315 316 316 317 318 318 318 316 317 318 307 305 304 304 302 302 300 301
302 302 304 304 304 303 304 304 304 305 306 307 307 307 311 314 312 309 306 305 305 305 304 303 303 304 306 306 306 307 306 306 309 311 307 306 307 307 306 308 309 310 309 309 309 309 309 310 309 308 309 308 309 309 309 309 309 309 309 309 310 315 315 313 312 312 312 312 313 314 316 316 317 318 318 318 318 318 318 318 319 313 308 305 303 304 301
301 303 303 303 299 299 301 303 302 305 307 308 308 307 307 307 311 309 308 307 306 306 306 306 305 304 306 307 308 307 306 307 310 309 305 306 306 307 307 309 309 309 310 309 308 310 312 312 311 309 308 308 309 310 309 307 307 308 309 309 310 315 316 315 312 311 311 311 312 314 316 316 316 316 316 318 319 317 316 316 316 317 318 319 312 305 311
300 300 301 300 297 299 301 303 303 304 305 307 307 308 309 309 309 308 307 307 306 306 306 306 306 305 304 304 305 305 307 307 307 307 305 306 307 307 307 308 308 309 309 310 309 313 314 310 308 308 307 307 308 308 308 307 307 309 310 309 310 310 310 311 311 311 311 311 312 313 315 315 316 315 315 315 315 315 315 316 316 316 316 317 317 313 308
299 299 300 301 301 301 301 301 302 302 302 303 306 306 308 307 307 308 307 307 306 306 306 307 308 308 306 304 304 304 305 306 307 307 306 306 307 306 308 308 308 310 310 310 310 312 308 307 306 306 306 306 307 308 307 307 307 308 310 309 309 309 309 310 310 310 310 311 312 313 313 315 314 313 314 314 314 313 314 314 314 314 314 315 317 317 315
298 298 298 298 298 299 300 298 298 299 300 301 303 303 304 305 304 304 306 308 309 308 309 309 308 307 307 306 305 305 305 305 307 308 307 306 306 307 307 308 308 309 309 309 308 307 306 306 305 305 305 305 306 306 306 306 306 307 308 308 309 309 310 311 310 309 309 311 311 311 312 312 311 311 312 311 311 311 312 311 312 311 312 313 313 313 312
296 297 297 297 298 297 297 297 296 297 297 298 300 301 301 302 303 302 303 304 305 307 308 308 309 309 307 306 305 305 306 306 306 306 305 305 306 307 307 308 307 308 308 308 307 306 306 305 305 304 304 305 305 305 305 305 306 307 306 306 308 309 309 309 309 309 309 309 309 309 308 308 307 308 308 308 309 310 310 310 310 311 311 311 311 311 312
296 296 296 294 296 296 296 295 296 297 297 298 299 300 300 301 301 301 302 304 303 304 306 307 308 309 309 309 307 307 306 306 305 305 304 305 306 307 307 308 309 311 308 307 307 307 306 304 303 304 304 304 305 305 305 305 305 305 306 309 307 306 308 307 307 307 307 307 308 307 306 305 305 306 306 307 308 309 309 309 309 309 309 309 309 311 313
295 294 293 294 297 295 295 296 297 298 298 299 299 300 300 300 300 302 303 304 304 305 304 305 306 307 308 308 308 307 306 306 305 305 304 304 305 306 306 306 307 306 306 307 307 306 305 304 303 304 304 304 304 305 304 304 305 305 304 305 305 306 308 306 306 306 306 306 305 305 305 304 304 305 305 307 308 308 308 307 307 308 308 308 309 311 312
296 295 296 296 296 295 295 296 295 296 297 298 299 300 300 301 302 302 302 304 304 305 304 305 305 305 305 306 305 305 305 305 304 304 304 304 305 305 306 307 305 305 305 305 304 304 304 303 304 303 304 304 304 304 304 304 304 304 304 304 305 305 305 305 305 305 304 304 303 304 304 304 304 305 306 307 307 307 307 306 307 307 306 307 308 310 308
298 298 297 297 297 297 297 297 297 298 298 298 299 299 300 301 301 301 304 304 303 304 305 305 305 304 305 303 303 303 303 304 305 304 304 305 304 304 304 303 303 303 303 302 303 303 303 303 304 304 303 302 301 302 303 304 303 303 303 304 304 304 303 303 303 302 302 302 304 303 304 304 305 307 307 306 306 306 305 305 305 305 305 305 306 308 308
298 298 298 298 298 299 299 299 299 300 299 299 298 299 299 300 300 300 302 303 304 304 304 304 304 304 303 302 302 302 302 303 303 304 304 304 303 303 303 302 302 301 301 301 302 302 303 304 308 307 304 302 300 299 304 304 303 303 303 302 302 302 302 302 302 302 303 303 304 304 304 306 306 306 305 305 304 304 304 304 304 304 304 304 305 305 305
298 298 298 298 298 297 297 298 298 298 298 298 299 299 300 299 301 301 303 302 303 303 303 304 304 303 304 304 304 303 303 302 303 303 303 303 302 302 302 302 302 302 302 300 300 301 304 306 309 307 305 304 300 300 306 306 302 302 302 300 300 301 301 301 302 302 303 304 304 305 305 304 302 303 304 303 302 303 303 303 302 302 303 303 303 303 303
297 297 297 297 298 297 297 298 299 299 298 298 299 301 301 299 298 298 299 301 302 303 304 303 304 305 305 304 303 302 302 302 302 302 302 302 302 302 301 301 301 302 301 300 300 301 303 307 308 303 299 299 299 299 303 302 304 299 299 301 301 301 302 302 302 303 303 304 303 302 301 301 301 300 301 301 300 301 301 301 301 301 301 301 301 302 302
296 297 297 297 297 297 297 298 297 297 297 296 297 297 299 302 301 300 299 300 301 303 304 303 303 303 303 303 302 301 301 301 302 302 302 302 302 302 301 301 302 302 302 302 302 302 307 306 302 299 300 298 299 298 301 303 304 299 300 301 301 302 301 301 301 301 301 300 300 300 298 299 299 299 298 298 298 299 300 300 300 300 300 300 300 300 301
296 296 297 298 297 298 298 297 297 297 298 297 297 297 298 300 299 299 300 300 301 305 304 302 302 302 302 302 302 301 301 302 302 302 301 302 302 301 300 301 302 302 304 305 303 304 307 304 301 299 299 298 298 298 303 302 302 301 300 301 301 300 300 300 300 298 297 297 297 297 297 297 297 297 297 297 297 298 298 298 298 298 298 298 298 299 299
297 297 297 297 297 298 297 297 297 298 298 298 298 298 299 299 298 298 298 300 302 303 304 303 302 303 303 303 302 302 301 302 302 301 302 302 300 300 299 298 300 302 304 302 304 306 305 302 301 298 299 298 297 303 302 301 300 298 300 300 300 299 299 299 298 297 296 295 295 294 294 294 294 295 296 296 296 296 296 296 296 296 296 296 296 297 298
297 298 299 299 299 298 298 298 298 297 298 298 299 300 299 299 299 299 300 301 302 302 302 303 306 304 303 303 303 302 301 302 302 302 302 302 300 299 299 298 301 302 305 305 307 306 303 301 302 301 297 298 303 302 301 301 296 297 298 299 298 299 298 298 297 297 297 296 294 294 294 294 294 295 296 295 294 294 293 293 294 294 294 295 295 294 295
299 299 299 299 299 300 299 299 298 298 298 299 299 299 299 299 299 299 300 301 301 301 301 302 305 308 307 301 300 300 300 301 301 301 301 301 302 302 300 299 301 303 305 306 305 301 300 300 301 299 302 303 302 302 301 297 296 297 297 298 298 298 298 297 297 297 296 295 293 293 294 294 294 294 294 293 293 292 292 292 292 293 293 293 292 292 292
300 300 300 299 299 300 301 300 300 299 298 299 300 300 299 299 300 300 300 300 301 302 301 301 302 303 303 301 300 299 299 300 299 300 299 299 300 301 302 301 301 304 305 306 303 300 299 300 299 300 302 302 302 302 300 296 296 297 298 298 298 297 297 297 297 296 295 295 294 294 294 295 294 293 293 293 292 292 292 292 292 292 293 292 292 292 292
300 300 300 300 300 300 299 298 298 297 299 299 299 299 299 299 299 300 301 301 302 303 304 302 302 303 302 301 301 300 301 301 301 300 298 298 297 297 301 303 302 304 305 304 302 300 299 299 301 302 303 302 302 302 298 295 295 296 298 298 298 297 297 296 296 296 295 295 294 294 295 294 294 294 293 293 293 292 292 292 292 293 293 293 293 292 292
301 301 301 301 299 298 298 298 298 298 298 298 297 299 301 301 300 301 301 302 302 303 304 303 303 303 302 301 302 302 302 302 302 302 302 300 298 298 301 303 303 305 306 304 301 299 298 301 303 302 302 302 302 302 296 298 298 298 297 298 298 298 297 296 296 296 295 295 295 295 295 294 294 293 293 293 292 292 293 294 293 293 293 293 293 292 292
301 301 301 300 299 299 299 298 299 299 298 296 296 296 299 302 302 301 302 303 303 303 303 303 303 302 302 302 301 300 299 299 300 303 302 304 306 303 304 305 305 306 306 302 301 299 299 302 303 303 302 302 303 297 294 295 295 294 296 296 297 298 297 297 296 295 295 295 296 295 295 294 294 294 294 293 292 292 292 292 292 292 293 293 293 293 293
300 300 301 301 300 300 299 297 295 294 294 295 296 298 300 301 302 302 302 302 303 303 303 302 302 302 302 302 303 302 301 299 297 298 301 303 302 302 303 303 305 307 306 304 302 301 303 303 304 303 302 302 302 294 294 294 295 294 294 296 296 295 296 295 294 293 294 295 296 295 294 294 293 293 294 293 293 293 293 293 292 292 292 292 292 292 292
298 299 300 301 302 301 300 299 299 299 296 298 300 300 302 302 302 301 301 301 301 301 301 301 301 301 302 303 304 303 304 304 301 299 301 302 301 302 302 305 307 307 306 303 301 301 304 304 304 304 303 302 299 294 294 294 296 296 296 295 296 296 295 294 294 294 293 295 295 295 295 295 295 293 293 293 294 294 294 293 293 293 293 293 293 293 292
298 300 299 300 301 301 300 297 296 296 299 301 300 301 303 303 300 300 302 302 302 302 301 300 300 301 302 302 302 303 303 304 303 303 302 301 302 303 304 304 306 306 306 302 302 300 303 305 305 304 304 302 297 296 295 295 295 297 297 298 298 296 296 297 297 297 296 296 296 296 296 296 295 295 295 295 294 294 294 294 294 294 294 294 294 293 293
298 298 298 300 301 301 302 301 301 301 300 301 301 303 303 302 301 302 302 302 302 301 300 300 300 301 301 301 301 301 302 302 303 304 303 302 303 305 305 304 305 306 307 305 302 300 300 302 303 304 304 302 298 298 297 297 296 298 299 298 298 298 298 298 298 297 297 297 297 296 296 296 296 295 294 294 294 294 295 295 294 294 294 293 293 293 292
297 296 297 298 298 299 299 301 303 304 303 302 302 302 303 303 302 302 303 303 301 300 299 299 298 298 300 300 301 300 300 301 304 304 303 302 303 302 305 305 304 305 306 304 301 300 299 301 304 305 304 301 299 298 300 300 299 298 298 299 299 298 299 298 298 298 298 297 297 297 297 297 296 295 295 295 295 295 295 295 295 294 294 294 293 293 293
Wind_Speed
1 0 3 5 1 1 1 2 2 2 2 4 5 2 3 10 8 9 9 13 13 14 16 13 10 8 10 10 10 9 8 8 7 8 8 8 10 8 6 5 6 7 8 8 8 7 8 8 6 6 5 5 5 7 6 6 4 2 2 1 5 5 4 4 4 3 3 3 2 3 4 3 3 5 5 4 4 3 3 4 4 6 5 6 5 5 5
5 8 8 8 5 2 5 7 6 4 1 1 6 4 2 2 0 2 14 12 6 9 11 12 11 9 10 9 7 8 9 9 8 9 9 10 9 7 6 6 7 7 9 8 8 9 8 7 7 8 8 7 7 8 8 6 4 1 2 1 4 5 2 3 3 2 5 4 1 1 3 3 3 3 2 4 3 2 3 3 3 4 4 4 5 6 6
5 6 11 8 8 5 7 7 9 8 5 5 4 5 4 9 9 10 14 12 9 3 11 11 10 9 8 9 10 10 10 10 10 9 9 8 7 6 7 7 8 7 8 9 8 9 9 8 8 9 9 8 8 8 6 7 7 6 6 7 8 8 5 4 5 3 3 5 5 4 3 3 3 4 2 2 6 3 2 1 2 3 2 2 2 4 6
4 4 11 10 5 3 6 7 10 9 6 4 0 3 2 6 9 11 12 9 7 9 12 10 11 12 12 12 11 10 9 10 10 11 9 8 7 6 7 8 9 9 8 8 9 9 9 10 10 9 9 8 8 8 6 6 5 5 8 9 9 8 7 7 7 4 5 5 3 3 3 4 3 2 2 2 6 6 3 2 1 1 2 2 2 2 2
2 5 4 7 6 4 6 7 7 4 3 2 0 2 1 4 17 13 12 11 9 16 15 16 13 14 12 12 11 10 9 8 10 12 10 9 9 7 4 6 10 11 10 9 10 10 8 9 10 9 9 9 8 7 7 7 8 8 8 8 8 8 7 6 6 6 7 5 6 6 5 4 4 4 4 4 2 2 1 1 1 1 1 2 2 3 4
2 7 11 4 4 3 1 3 2 2 2 1 1 1 1 9 3 2 1 6 14 14 15 17 16 14 13 12 8 7 11 11 9 9 10 10 10 8 6 6 7 9 9 8 10 10 9 10 10 9 8 9 8 8 7 7 8 7 8 8 7 7 8 6 6 7 6 6 6 5 4 5 5 5 5 4 2 2 3 3 2 1 1 2 3 3 4
1 5 6 4 2 3 2 5 3 4 6 2 6 6 5 4 3 5 10 13 13 12 11 12 13 12 9 7 9 8 7 9 11 11 10 10 10 10 8 8 7 9 9 9 11 10 9 8 9 9 9 8 8 8 8 8 7 7 8 8 8 8 8 8 7 7 8 7 7 6 6 5 5 6 4 2 2 2 3 4 3 2 2 2 2 2 1
2 4 4 2 1 4 5 6 4 4 3 3 7 5 4 4 3 7 12 13 12 12 13 11 10 11 11 9 6 7 7 6 11 12 11 10 10 10 9 10 9 9 8 9 10 8 5 7 7 7 7 6 9 8 7 7 7 7 8 9 8 8 8 8 8 7 7 7 7 7 7 6 6 4 2 1 1 2 3 3 2 2 2 1 1 2 2
3 2 1 3 4 3 5 4 5 4 3 3 1 1 1 3 2 6 13 13 14 14 12 11 10 10 10 9 5 4 7 8 5 9 11 10 9 8 7 8 8 7 8 9 8 8 8 7 8 7 6 8 8 9 9 7 8 8 9 8 7 7 7 7 8 8 7 7 7 7 6 4 3 3 3 2 1 1 2 1 1 1 0 1 1 1 1
3 5 2 5 5 1 3 2 5 3 2 2 3 2 2 3 2 5 14 15 16 15 14 13 12 12 11 8 5 3 6 7 10 7 7 7 8 7 7 8 7 8 8 7 7 9 9 9 7 6 7 8 9 10 9 8 9 9 8 7 6 6 7 6 6 6 7 7 7 5 5 4 3 3 2 2 3 2 3 3 4 4 4 3 4 6 7
3 3 4 2 3 2 3 5 6 5 1 2 3 2 3 1 1 4 10 16 16 17 16 15 14 11 10 9 7 5 7 7 8 10 7 9 8 8 8 10 10 8 8 9 9 9 10 10 6 6 7 9 10 8 7 8 9 9 8 6 7 7 6 5 6 6 5 6 6 6 6 5 4 7 5 5 4 5 6 6 8 7 9 10 10 10 11
1 4 5 6 4 1 2 4 5 5 4 1 3 2 5 4 3 5 7 14 17 15 16 16 13 13 12 11 7 6 8 8 6 9 11 10 9 8 8 8 8 8 7 10 11 11 10 7 5 6 8 9 9 8 6 7 9 8 6 5 4 4 5 6 5 5 5 5 6 7 7 7 7 7 6 7 8 8 8 7 8 8 9 9 10 9 9
1 3 1 2 2 3 3 5 9 8 2 2 4 6 2 2 4 4 8 8 10 14 14 11 11 0 2 9 10 8 9 11 9 7 6 7 8 10 9 8 7 8 8 10 9 9 6 6 6 6 8 10 8 6 7 9 8 5 4 4 5 5 6 6 6 6 5 6 6 7 6 6 7 8 8 8 9 9 8 8 8 8 8 7 7 7 7
1 0 1 3 2 3 3 7 8 4 0 0 2 4 1 3 5 3 8 11 7 9 9 7 6 7 12 13 11 11 9 8 8 9 8 8 8 6 6 8 9 9 9 9 9 8 6 6 6 7 8 9 7 7 8 8 5 3 4 4 5 6 7 7 6 6 6 5 5 4 5 6 8 8 7 8 7 7 6 6 7 6 5 4 4 6 6
1 3 3 2 2 1 3 13 4 2 2 3 3 3 2 3 6 10 6 8 9 11 10 10 12 15 15 14 12 11 10 11 10 9 9 9 10 9 9 8 7 10 9 9 9 8 6 7 6 6 9 9 7 7 8 5 4 3 3 4 5 6 6 6 6 6 6 6 5 4 4 5 7 7 6 7 6 6 6 6 6 6 7 6 7 7 7
1 1 0 0 2 6 5 4 1 3 1 4 2 1 0 1 2 9 8 3 6 9 16 16 14 16 16 14 14 12 9 9 8 6 4 5 5 6 6 8 8 10 10 8 8 7 6 6 6 6 8 8 7 8 7 5 4 4 4 5 5 6 5 5 6 6 5 5 6 5 5 4 6 6 6 5 6 5 5 6 6 6 5 5 5 6 5
1 0 1 3 3 4 4 1 2 3 4 2 4 3 2 4 1 1 8 8 6 8 11 13 15 14 15 18 19 20 18 17 15 13 8 6 7 7 8 9 7 9 11 10 9 8 6 7 7 6 6 8 7 7 4 3 5 5 5 5 5 6 6 5 5 4 4 5 6 6 5 4 4 5 5 5 6 5 5 5 5 5 4 4 5 4 4
1 1 3 3 3 6 9 4 2 4 7 7 3 1 4 0 2 1 9 9 9 9 10 16 9 12 12 13 8 10 12 14 12 10 8 6 6 6 7 6 7 8 9 10 10 9 7 6 7 6 7 7 7 3 3 3 3 4 5 5 5 6 6 6 5 5 6 5 5 5 4 3 2 2 4 4 5 4 5 5 5 5 4 4 4 3 3
3 1 5 7 4 5 9 10 9 6 6 5 5 5 4 0 2 8 6 8 7 6 7 12 13 11 12 12 9 7 6 7 8 9 7 6 7 8 8 6 7 8 8 9 9 8 8 5 6 7 8 6 5 4 5 4 4 4 5 6 5 6 6 5 5 5 6 5 4 4 4 3 2 2 2 3 4 4 4 4 3 3 3 3 3 3 3
1 1 2 2 1 2 4 7 9 10 11 11 8 5 5 3 3 6 8 9 10 9 7 4 11 12 10 12 11 10 10 9 7 5 6 6 4 3 5 5 6 7 8 9 8 8 7 6 6 7 7 7 5 5 5 5 4 5 6 5 5 5 6 4 4 5 5 8 6 4 4 4 3 3 3 2 4 4 4 3 3 3 1 2 2 2 2
1 1 2 4 3 3 9 8 7 6 6 6 9 10 10 9 8 6 5 7 11 11 12 11 11 11 10 12 13 13 9 8 8 8 4 2 3 5 6 5 7 9 8 9 8 8 7 6 7 8 7 6 6 7 5 5 5 7 6 6 5 6 5 5 5 5 4 4 4 4 4 3 3 0 3 2 5 4 2 1 1 2 2 2 1 1 0
1 0 1 1 1 1 5 6 6 7 7 7 10 11 12 11 9 8 6 4 2 4 12 14 12 14 12 11 13 15 14 14 14 11 10 9 8 7 6 5 7 8 7 9 8 8 7 6 7 7 7 6 5 5 5 5 6 6 5 5 6 6 5 5 5 5 4 4 4 4 3 4 3 2 3 2 2 4 2 3 4 3 1 1 1 1 1
1 3 3 2 2 3 2 1 3 3 5 9 11 9 9 10 9 7 8 8 3 4 3 3 9 12 13 12 9 11 10 11 11 13 15 13 10 9 7 8 7 7 7 7 9 8 7 7 7 7 7 6 6 5 5 5 6 6 5 5 4 4 6 5 5 5 5 5 5 4 4 4 3 3 2 1 1 5 4 2 2 2 2 4 3 2 1
1 2 1 4 1 0 1 2 1 2 4 9 7 6 6 8 9 10 11 9 7 5 5 1 1 8 10 10 12 12 10 10 10 11 11 12 11 10 9 9 9 9 8 8 9 10 7 7 7 7 7 6 6 5 5 5 6 7 6 5 5 4 4 4 5 5 4 5 5 5 5 4 4 2 3 5 5 1 3 4 2 3 3 2 4 2 2
1 1 2 3 3 2 2 2 2 0 1 3 5 4 4 6 6 7 10 9 10 8 4 5 7 6 3 10 10 12 12 11 13 14 12 10 10 10 9 9 10 10 9 8 8 8 7 7 7 7 7 5 5 4 4 4 5 6 5 5 5 4 4 4 4 5 5 5 5 4 5 5 4 4 3 3 2 4 8 7 5 4 5 6 6 5 1
2 0 1 1 1 2 1 1 2 3 4 2 2 1 1 3 3 4 4 5 5 6 7 6 6 3 5 5 7 8 8 12 13 9 9 9 8 7 9 10 9 7 8 7 8 8 7 8 7 7 7 5 5 5 4 5 6 6 5 4 4 4 5 4 4 4 4 4 4 4 3 4 4 4 4 4 3 3 3 4 7 4 3 7 8 6 5
2 1 1 4 4 5 1 3 3 2 2 2 1 1 1 1 3 1 1 1 1 2 3 3 4 4 1 1 7 4 11 10 7 8 9 11 12 12 9 7 9 9 9 8 7 7 8 7 6 6 6 5 5 5 5 5 6 6 5 5 5 6 9 6 3 3 3 3 3 3 4 4 4 5 4 4 4 5 4 4 4 4 5 5 6 8 5
3 3 1 1 2 2 4 5 4 3 2 2 3 4 4 4 2 3 6 6 6 3 1 2 3 5 5 3 2 5 6 4 11 10 9 11 10 6 6 8 9 9 8 7 8 7 7 7 7 6 5 3 3 4 4 5 6 6 5 5 5 4 3 4 3 3 3 2 2 2 3 3 4 4 4 4 4 4 4 4 3 4 4 4 4 5 8
3 2 2 0 2 4 4 4 3 5 7 5 2 1 2 2 3 3 4 4 4 3 5 1 2 1 0 3 2 3 4 6 8 10 11 9 6 7 7 9 9 9 8 8 7 7 7 7 7 7 5 3 2 2 3 4 5 5 4 4 4 3 3 3 3 2 2 2 1 3 4 3 3 3 3 3 3 3 3 3 3 3 3 3 4 4 3
2 2 2 2 2 1 1 4 4 5 5 5 4 5 3 1 3 3 3 3 2 3 4 3 2 1 0 2 3 6 7 8 9 8 8 8 7 8 8 8 7 6 6 7 8 8 8 8 7 7 5 4 3 3 4 4 4 4 5 4 3 3 2 3 3 2 2 2 3 5 4 4 4 3 3 3 3 3 3 3 3 3 3 3 4 4 5
2 2 4 4 5 5 5 2 3 3 4 5 3 2 4 2 2 3 5 5 2 3 2 3 3 1 2 4 5 5 5 6 6 5 4 4 5 8 10 12 12 10 11 10 9 8 8 7 7 7 5 4 4 4 4 4 4 4 4 3 3 3 4 4 3 2 2 2 3 4 3 3 3 3 3 3 3 2 2 2 3 3 3 3 3 4 4
2 4 5 4 2 3 3 2 3 3 3 3 5 4 3 2 3 4 4 4 4 3 3 4 5 4 5 5 6 6 6 6 5 4 3 3 4 6 9 12 10 9 8 9 8 8 8 8 7 6 5 4 4 4 4 4 4 4 3 3 3 1 1 3 2 2 2 2 2 3 3 3 3 3 2 2 2 2 2 3 3 3 3 3 4 4 4
2 4 4 5 5 4 4 3 2 4 4 4 3 3 3 3 3 4 4 4 3 1 2 4 4 4 4 3 5 5 5 5 4 4 5 5 5 5 5 2 3 6 7 7 8 8 8 8 7 5 5 4 4 4 4 4 3 3 2 2 2 1 1 2 2 1 1 2 2 2 2 3 3 2 3 3 3 3 3 3 4 4 4 4 4 4 3
1 2 4 4 3 4 5 6 3 3 4 3 4 4 4 4 4 3 3 3 2 3 4 5 4 2 2 3 4 5 5 6 5 6 6 6 5 4 2 2 5 6 7 7 8 7 6 6 6 5 5 5 5 4 4 4 4 3 3 3 2 2 2 2 3 2 2 2 2 3 2 3 3 3 3 2 3 3 4 4 4 5 4 4 4 4 5
2 4 4 5 4 5 5 5 5 5 5 6 6 4 5 5 4 4 3 2 3 4 4 3 4 3 2 2 5 6 6 8 8 9 11 11 10 9 6 6 7 8 8 6 6 6 7 7 6 6 6 5 4 3 3 4 4 4 4 3 2 2 2 2 2 2 3 3 3 2 2 2 3 3 2 3 3 3 3 4 5 5 5 5 5 5 5
2 4 4 4 5 5 5 5 6 6 6 6 6 7 6 6 5 5 3 4 4 3 3 4 4 1 2 3 4 6 8 8 6 5 6 8 8 8 8 8 8 8 8 6 4 6 7 7 9 9 6 5 4 3 2 4 3 4 3 2 2 1 2 2 2 2 3 3 3 3 3 4 3 3 3 3 4 3 3 3 4 5 5 5 5 6 6
2 3 4 5 5 4 6 6 6 6 6 7 7 7 8 7 6 6 5 4 4 5 5 3 3 4 6 6 6 5 5 5 5 6 6 6 7 8 9 10 9 9 8 8 6 5 6 6 10 11 6 4 4 3 3 5 4 3 3 2 1 1 2 2 2 3 3 3 3 3 3 4 4 4 4 4 4 4 4 4 4 5 5 5 6 6 6
4 3 5 6 6 6 6 6 6 5 6 6 6 7 7 7 7 6 6 6 5 5 5 5 6 6 5 2 2 5 5 5 6 7 8 9 9 9 7 8 8 7 8 7 7 6 6 7 11 7 5 5 4 2 1 3 7 4 3 2 0 1 2 2 3 3 2 2 3 4 4 5 5 4 4 5 5 5 5 5 6 5 5 6 6 6 6
5 4 4 5 5 6 6 6 6 5 6 7 8 7 6 7 7 5 5 6 6 5 4 6 6 5 5 5 5 4 5 6 7 8 8 9 8 10 9 7 8 7 6 6 6 5 5 6 6 6 5 4 3 0 1 2 6 4 2 1 1 1 2 2 2 3 4 5 5 5 5 4 4 5 5 5 6 6 7 8 8 6 6 6 6 6 6
4 5 6 6 6 6 6 7 7 7 7 6 7 8 7 6 6 6 7 7 6 5 5 5 5 6 6 6 6 6 6 7 8 9 9 8 7 7 6 5 4 5 7 10 7 6 8 12 8 5 4 3 2 1 2 3 5 3 3 2 2 2 2 3 4 5 5 5 5 6 5 4 5 5 5 5 6 6 6 6 6 6 6 6 7 7 7
5 5 5 5 6 6 7 7 8 8 7 7 7 7 7 7 7 6 6 7 7 6 6 6 6 6 7 7 8 7 7 7 8 9 9 9 9 8 7 7 6 6 8 6 6 7 9 7 6 5 3 3 2 3 4 5 4 3 2 2 2 2 2 2 4 4 4 4 4 4 4 4 4 4 4 4 5 5 6 6 6 6 6 7 7 7 7
6 6 7 7 7 6 7 7 7 8 8 8 8 8 8 8 7 8 8 7 7 6 6 7 8 9 7 7 4 4 6 7 8 9 11 11 11 9 7 5 6 6 10 11 10 9 7 6 5 4 4 3 3 7 6 4 4 3 2 2 2 3 3 3 3 3 4 4 4 4 4 4 4 4 4 5 5 6 6 6 6 6 6 7 7 7 8
7 8 9 8 8 8 7 7 7 8 8 8 8 8 8 7 7 7 7 7 7 6 6 6 7 8 5 5 5 6 6 7 8 8 5 4 3 5 9 8 6 6 13 7 6 6 6 5 5 5 6 5 3 7 8 5 4 3 2 2 2 3 3 3 3 4 4 3 3 3 3 3 3 4 4 5 5 6 6 5 5 5 6 6 7 8 8
8 7 7 8 9 8 8 8 7 7 7 9 8 7 7 7 6 7 7 7 7 7 6 7 6 6 6 8 8 7 7 7 8 8 9 7 4 2 4 8 6 9 14 6 6 6 6 5 5 6 9 9 8 9 5 4 4 4 2 2 2 2 2 3 3 3 2 2 2 2 3 3 3 3 4 4 5 5 5 5 5 5 6 7 8 8 7
7 7 8 8 9 8 7 7 7 8 8 7 6 5 5 6 6 6 7 7 7 7 6 7 7 7 7 8 9 10 10 10 11 11 11 8 7 4 1 5 7 6 9 9 6 5 5 5 7 9 7 10 10 9 5 4 4 4 3 3 2 2 2 2 2 1 1 1 1 2 3 2 2 3 3 3 5 5 5 5 6 6 6 6 7 7 6
7 6 7 8 7 7 7 7 8 6 6 6 6 6 5 5 6 6 6 7 7 7 7 7 7 8 8 7 6 6 6 6 5 3 5 7 8 7 8 9 7 6 12 12 5 5 5 8 10 10 9 10 10 6 4 4 4 3 4 4 3 3 2 2 1 1 1 1 1 1 1 0 1 1 2 3 4 5 5 6 6 6 5 6 6 7 7
6 6 7 7 7 8 8 7 6 4 3 3 4 5 5 3 4 5 5 6 7 7 6 6 6 6 8 10 11 10 8 7 6 5 5 3 4 7 11 12 10 13 12 7 5 5 4 5 8 9 8 9 8 5 5 4 4 4 4 3 3 3 3 2 2 2 2 2 2 2 2 2 1 1 2 2 2 4 5 6 6 6 6 7 7 8 8
5 6 7 7 7 8 7 5 4 3 3 3 4 4 5 4 3 2 2 3 3 2 3 3 4 4 5 7 8 9 12 13 10 5 3 5 6 7 7 6 7 12 12 9 9 7 11 10 10 10 9 9 6 5 5 5 5 4 4 4 4 4 3 3 2 2 3 3 3 2 2 2 2 2 2 2 2 3 3 5 6 7 7 7 7 8 8
3 4 5 6 6 7 6 5 4 3 2 3 3 4 3 2 1 1 2 3 4 5 6 7 9 9 8 7 8 7 6 6 7 7 5 5 6 6 6 8 13 13 7 5 6 5 9 12 12 11 11 7 5 5 5 5 5 4 4 5 4 4 4 4 4 3 3 4 4 3 3 3 3 3 3 3 3 4 5 6 6 6 6 7 8 8 8
3 3 5 5 6 6 5 4 4 2 3 3 3 4 4 2 1 2 3 4 5 6 6 7 7 7 7 7 7 6 6 6 6 5 5 5 5 5 6 6 5 9 9 6 6 5 7 13 12 11 8 4 5 5 5 5 5 5 4 5 4 4 4 5 4 5 4 4 4 4 4 4 4 4 4 4 5 5 6 7 7 8 12 9 7 7 6
3 4 4 4 4 4 5 4 3 1 1 2 2 3 4 3 3 5 5 6 6 7 6 6 5 5 5 6 6 6 5 3 4 6 4 4 4 6 7 5 5 6 6 6 5 6 5 5 5 6 6 5 5 5 5 5 5 5 5 4 5 4 4 5 4 5 5 5 4 5 5 4 4 4 4 3 4 5 6 7 8 8 8 8 7 7 6
2 3 4 3 3 3 4 5 4 2 2 3 3 3 3 4 5 5 6 8 7 7 6 7 6 3 4 5 5 5 5 6 5 5 5 5 4 4 6 8 5 5 6 6 6 6 6 6 6 6 6 6 5 5 5 7 5 5 5 5 4 5 5 5 5 5 5 5 5 5 5 5 4 4 4 4 5 6 7 8 8 8 8 7 7 8 8
Wind_Direction
114 262 292 307 112 65 86 55 15 144 221 132 139 205 187 154 155 198 182 173 170 170 172 160 158 153 153 155 150 141 129 111 106 102 97 98 102 102 95 77 73 88 91 96 108 113 130 141 140 127 116 94 75 73 62 51 51 41 20 92 97 90 61 7 355 33 61 46 38 94 86 80 33 355 347 350 352 329 278 252 233 219 211 214 225 229 230
16 18 7 5 54 52 51 30 27 16 71 154 117 93 72 57 316 167 150 157 139 154 150 145 157 156 150 140 130 129 125 122 112 102 101 107 104 104 98 83 70 79 87 81 80 92 101 124 124 109 96 89 78 72 62 54 42 124 215 94 95 97 95 252 261 109 123 120 203 173 107 115 191 207 263 305 306 4 24 357 324 307 286 251 226 229 237
349 354 0 14 12 41 67 32 37 31 36 67 74 104 99 82 49 110 131 134 133 122 131 143 141 135 134 131 138 134 128 127 122 110 102 98 109 116 105 97 82 70 84 88 85 84 90 93 88 83 82 79 81 77 73 75 73 77 86 78 85 105 132 216 244 219 132 151 176 175 156 165 215 255 273 11 330 294 222 124 57 25 28 19 311 293 275
327 356 8 333 7 41 73 37 19 11 16 61 323 120 193 119 138 132 122 130 153 153 145 131 136 142 149 147 141 139 141 134 126 116 109 108 101 99 119 116 106 98 81 80 84 83 82 85 83 87 83 78 72 66 60 59 58 56 72 76 76 73 60 47 42 49 161 161 168 172 175 190 175 113 107 163 246 261 256 243 181 128 43 33 48 43 359
292 292 3 336 352 32 15 353 342 325 299 247 287 335 82 156 143 136 161 202 159 152 147 142 149 151 153 149 148 138 130 129 130 125 120 110 96 80 45 93 111 104 90 88 89 86 86 82 84 77 83 82 74 68 61 52 51 48 50 60 63 65 63 51 54 46 46 77 106 108 108 103 98 105 107 121 206 246 287 267 179 135 105 40 35 46 42
247 317 330 340 50 41 290 246 262 214 233 182 126 200 170 144 112 190 1 126 135 145 150 151 154 150 159 158 154 145 141 135 123 117 121 119 112 102 88 74 76 88 99 91 83 79 74 78 79 84 81 82 78 73 71 65 68 68 74 69 68 68 69 61 57 67 62 63 63 63 64 75 90 98 93 100 112 71 64 55 54 53 84 74 60 37 35
325 331 3 50 27 241 244 301 286 225 228 132 118 76 66 342 318 124 116 131 143 144 138 134 139 150 135 121 130 125 126 130 127 130 123 122 123 122 117 105 88 89 95 93 90 82 77 74 79 74 65 66 77 69 65 64 59 68 70 72 65 62 59 50 45 48 58 57 55 47 39 44 58 73 84 84 108 97 78 71 59 36 12 43 61 103 84
71 42 25 87 228 246 289 285 352 16 90 54 69 48 356 16 319 146 137 137 131 129 131 138 139 127 120 96 84 109 108 118 132 133 131 132 134 132 133 123 117 112 105 94 84 77 61 61 61 70 79 80 76 72 65 60 53 50 52 55 56 61 57 50 47 46 48 49 47 45 42 27 34 39 55 131 107 91 95 92 103 139 144 135 186 223 122
152 155 107 249 296 338 6 4 13 32 354 341 43 170 267 320 295 147 134 132 130 128 134 129 121 117 107 106 79 68 115 107 94 123 130 137 133 128 119 113 109 103 93 89 91 84 67 57 59 56 62 65 68 65 61 55 58 50 48 43 31 32 43 43 48 47 52 55 52 50 49 41 23 25 9 12 61 125 111 97 84 18 175 219 215 240 31
113 129 38 1 15 307 285 246 275 263 248 223 196 118 320 320 44 142 139 141 138 135 134 135 135 126 116 130 156 120 108 110 107 82 104 108 110 103 96 98 90 93 91 89 81 88 83 65 53 65 66 71 68 62 54 46 49 46 45 37 26 31 30 27 23 24 31 43 49 56 61 52 22 5 358 13 42 39 58 57 46 28 13 27 34 30 21
48 78 146 199 157 249 217 273 287 298 276 219 171 77 311 265 194 149 150 141 146 146 144 144 144 145 155 168 161 162 126 116 117 117 111 111 110 111 116 117 113 107 101 100 98 88 82 74 59 79 83 80 73 66 58 54 51 45 35 28 24 24 21 27 37 29 16 32 43 46 51 48 43 43 31 30 32 42 48 49 44 34 35 36 34 31 35
70 142 157 210 194 182 335 276 291 307 333 224 81 58 272 223 197 153 152 152 149 151 150 149 159 164 167 171 166 152 134 122 117 128 133 125 117 105 102 95 108 112 112 95 81 81 83 92 103 92 85 79 76 73 66 65 56 47 28 13 356 21 38 41 44 39 22 23 25 33 34 36 38 43 43 49 45 46 40 39 45 44 36 35 38 37 34
103 101 286 352 320 295 295 287 300 324 314 71 103 190 245 237 147 148 136 145 152 146 150 159 153 240 125 130 138 129 115 107 98 84 90 109 117 124 119 117 111 95 86 89 93 93 101 108 98 94 89 82 75 73 68 60 52 29 6 7 29 36 38 41 40 40 31 27 27 25 28 34 35 37 34 40 42 41 41 38 42 38 37 32 36 43 42
70 160 122 209 239 241 275 285 288 279 33 329 216 237 213 157 125 128 139 138 142 139 134 116 117 136 110 108 103 110 109 107 109 113 115 109 100 97 107 117 108 100 96 94 91 78 72 75 78 82 85 83 79 69 61 52 30 350 20 32 39 47 44 36 31 32 32 21 30 26 35 46 49 44 36 42 46 45 42 46 51 52 57 64 69 61 54
69 43 63 20 110 235 57 321 348 23 28 233 224 281 302 244 151 135 130 138 145 133 119 122 126 122 118 116 116 113 117 120 124 130 132 133 132 130 120 104 104 109 99 91 81 78 57 56 59 70 82 80 72 60 51 13 323 360 32 52 52 53 49 41 35 32 30 25 16 13 34 57 70 59 44 50 45 45 45 44 44 43 38 35 38 39 37
138 74 75 148 217 285 331 359 53 328 313 307 252 145 9 306 170 131 122 119 139 140 134 138 132 128 121 120 122 115 108 101 79 38 58 104 111 108 98 111 119 107 103 95 88 72 64 63 63 64 80 82 73 62 35 329 349 13 32 34 57 60 56 46 34 29 24 22 18 18 23 35 72 69 60 62 55 50 52 54 51 47 36 38 42 46 37
95 278 206 256 261 258 290 280 257 265 285 294 244 164 157 162 220 88 127 142 134 135 126 124 131 134 146 151 152 147 152 146 147 152 171 171 148 135 131 131 124 112 113 111 101 82 69 73 66 66 70 81 72 59 357 348 10 21 22 27 40 42 38 39 39 24 28 36 33 22 13 19 45 65 62 65 65 38 55 55 58 59 45 46 46 41 34
245 195 209 268 341 354 342 346 321 331 345 346 15 323 135 233 142 125 150 148 149 150 147 133 138 147 152 142 142 143 143 137 141 141 152 151 128 128 125 124 120 116 113 109 107 102 79 73 76 70 63 67 69 21 337 20 24 22 45 42 37 32 23 23 20 15 27 30 45 41 29 19 36 66 60 68 81 55 59 61 61 56 40 46 37 34 39
69 226 340 30 359 344 5 352 351 9 14 351 349 5 0 357 116 106 95 116 127 153 157 143 135 136 136 123 108 101 88 103 129 133 142 141 148 147 140 143 127 117 114 110 110 106 99 83 90 86 79 71 81 54 42 15 22 34 61 54 46 33 20 9 9 16 20 20 26 15 27 22 41 55 75 80 83 79 68 73 67 56 48 42 29 21 29
83 236 296 293 272 79 25 23 13 355 344 349 13 10 14 356 47 93 113 108 109 114 80 61 116 122 129 129 128 125 122 117 109 105 129 140 144 156 146 148 129 124 121 123 119 114 111 115 107 98 86 81 71 62 47 35 34 59 60 58 57 40 27 11 11 5 9 10 18 358 6 11 8 57 64 93 93 101 115 118 99 81 88 53 46 40 13
293 320 290 310 281 354 23 10 20 3 350 353 15 21 30 33 32 45 87 121 135 124 132 140 139 139 149 142 134 124 117 115 118 118 107 121 170 169 170 170 150 140 142 137 136 124 125 132 111 97 94 87 74 69 56 46 54 68 64 55 52 40 27 25 10 14 11 0 354 356 343 3 27 294 133 88 100 115 155 173 102 115 90 95 89 156 144
347 182 237 14 139 281 331 0 351 357 0 42 40 30 31 26 27 15 21 40 63 151 157 154 154 150 151 153 147 146 151 153 146 149 153 164 196 211 199 168 157 151 143 134 127 122 129 130 114 110 106 101 94 92 82 67 67 71 68 62 52 41 34 27 21 19 9 4 358 2 0 341 358 65 81 46 65 122 131 65 43 28 92 93 10 352 34
294 268 253 213 152 136 232 244 319 12 26 48 47 35 31 29 29 37 52 19 12 120 151 164 159 153 156 159 155 145 152 158 160 163 165 173 187 192 187 160 163 143 142 137 127 127 139 136 125 124 120 118 112 106 107 103 95 88 78 73 61 44 39 31 28 35 21 13 12 16 17 9 349 3 31 90 62 68 60 97 147 290 260 245 297 275 269
259 220 214 178 146 177 243 251 293 358 80 75 58 43 45 48 38 36 41 41 46 0 341 336 211 163 151 159 156 162 166 164 162 169 179 182 180 177 180 168 159 150 147 143 142 146 151 143 135 127 120 123 115 116 111 114 106 99 96 90 78 55 49 42 33 37 30 26 22 17 16 16 21 40 46 13 355 17 105 114 73 145 169 122 132 165 264
39 213 180 175 209 238 221 213 242 253 344 94 109 98 69 40 42 50 43 34 25 24 33 351 338 325 213 172 177 169 170 176 178 179 180 177 179 176 177 166 162 157 159 157 152 152 154 146 138 131 121 120 112 101 92 95 97 94 95 98 95 77 76 56 45 40 37 29 26 27 17 14 16 18 14 14 19 335 335 351 24 68 40 43 56 108 170
277 306 155 181 207 264 295 298 298 297 314 9 62 32 70 85 47 42 57 65 42 45 32 15 351 340 340 277 202 182 177 178 180 175 168 178 181 183 179 173 166 155 154 157 156 157 154 148 138 129 119 123 118 114 107 91 87 93 88 84 92 101 90 71 55 51 39 27 22 21 14 22 29 24 23 24 12 356 352 353 348 15 55 27 23 43 94
6 23 22 2 354 336 4 44 293 281 289 281 246 221 190 44 16 23 306 63 110 111 85 51 23 323 339 286 310 266 191 182 177 177 182 184 187 191 181 159 157 160 160 158 160 160 151 143 131 122 120 120 113 110 109 110 105 95 88 82 60 60 68 76 72 61 39 37 18 8 22 23 24 23 22 23 24 30 25 8 11 357 349 351 358 10 18
61 11 86 157 267 280 290 300 289 297 249 247 269 277 278 275 291 343 327 332 327 336 358 95 56 32 349 298 253 292 294 201 184 186 190 200 197 172 155 163 162 164 162 159 160 159 145 133 130 121 120 119 100 104 107 111 101 101 101 95 88 89 67 63 71 67 50 32 13 2 19 16 27 25 26 19 24 29 18 20 21 13 360 344 339 328 341
1 353 336 247 228 248 265 288 331 355 346 339 351 342 346 335 345 330 298 278 261 283 301 325 106 105 219 274 200 218 254 256 219 197 203 201 181 162 165 164 165 163 158 157 156 147 138 135 132 124 126 126 108 111 117 107 104 108 107 106 110 102 90 95 84 69 61 58 12 35 34 36 37 25 24 22 26 22 24 17 13 8 349 321 320 347 339
328 339 47 48 360 3 35 29 345 337 347 339 357 348 343 9 325 297 277 283 282 267 258 278 292 303 152 242 219 214 216 228 245 245 219 189 172 166 162 155 142 146 148 156 159 152 148 143 137 133 140 153 147 131 104 102 108 111 109 113 109 101 133 128 109 82 51 40 44 49 43 47 37 21 16 17 9 2 4 358 356 344 337 333 345 344 339
329 11 45 21 26 31 71 14 347 339 351 2 16 25 4 15 312 298 285 284 279 265 262 251 252 212 185 219 233 216 222 226 230 254 286 275 200 172 165 161 160 175 183 176 160 155 148 140 135 134 147 144 132 124 110 106 112 102 105 103 88 71 67 70 71 73 52 36 44 39 33 38 22 10 9 354 346 330 343 332 325 325 331 328 328 330 327
6 357 4 1 30 22 350 339 353 345 337 343 12 19 330 320 287 284 292 304 285 286 316 328 312 282 250 225 220 210 210 223 226 211 183 204 243 213 190 188 188 174 156 149 150 145 135 132 134 145 146 140 124 112 114 116 116 109 106 113 103 90 62 69 71 51 31 38 47 40 20 8 345 346 336 318 316 328 331 331 333 330 325 328 322 321 316
33 359 350 341 348 351 328 299 293 304 326 331 319 286 275 259 255 269 268 265 297 294 209 237 239 234 236 214 203 220 199 182 182 164 172 178 196 224 235 216 138 136 141 145 141 141 141 144 144 143 134 120 103 92 92 95 106 111 134 117 101 4 55 41 18 27 6 42 46 11 356 323 319 297 289 300 325 344 335 332 328 330 327 325 323 314 306
188 217 237 243 236 262 275 284 260 264 285 273 260 274 283 267 247 252 264 281 268 274 268 250 249 247 229 187 185 179 161 152 173 179 166 169 172 183 237 137 123 121 121 124 121 122 123 126 128 131 120 106 98 95 83 90 103 108 104 84 61 58 41 23 19 8 359 351 347 338 319 308 299 289 279 314 348 331 339 337 335 330 323 323 326 327 313
246 273 265 268 263 247 240 240 259 272 273 285 289 270 246 243 240 249 256 237 239 241 248 256 256 255 211 173 173 187 194 206 207 188 189 187 176 163 149 130 111 112 117 116 129 129 130 127 124 118 110 100 93 80 76 107 117 105 89 67 59 54 41 346 1 344 328 313 306 285 284 273 269 278 321 356 352 355 350 345 337 329 328 330 330 327 326
246 273 279 273 264 258 255 253 255 254 259 262 260 260 262 248 233 237 250 244 235 261 270 257 264 230 189 195 199 201 209 218 225 206 178 163 147 140 141 136 132 118 114 108 131 132 127 132 141 132 119 111 88 56 95 138 100 116 87 85 26 13 330 324 312 305 298 290 290 299 283 303 335 348 352 4 11 10 12 359 343 332 329 330 335 337 333
231 242 265 265 264 257 259 262 256 254 251 245 249 257 255 249 238 238 236 247 242 233 237 247 262 249 236 223 220 218 214 201 188 171 154 139 145 148 151 151 152 144 138 139 170 159 143 148 151 132 113 95 90 45 353 129 122 82 98 80 21 348 314 299 286 293 293 290 289 299 348 25 33 28 12 358 0 359 347 344 345 338 337 342 340 332 328
278 262 262 265 267 266 260 253 252 252 255 263 255 245 240 240 236 230 227 227 230 224 215 206 217 229 243 235 178 198 192 174 161 155 150 156 156 142 146 147 153 150 152 160 159 151 167 170 134 109 112 106 102 59 338 354 129 130 107 148 135 306 308 316 321 330 318 344 19 31 39 19 21 12 12 12 2 350 338 335 338 330 322 325 321 321 322
289 275 269 270 268 268 269 274 270 258 241 243 253 250 246 242 247 246 248 240 235 230 208 211 216 217 227 220 217 189 175 171 165 157 157 160 167 162 166 161 153 147 145 139 128 133 133 118 108 118 118 127 138 296 299 307 110 101 117 137 59 342 359 1 25 21 37 36 28 30 30 19 14 5 358 349 337 330 326 326 327 325 322 322 323 322 324
274 275 272 273 276 272 272 269 267 262 258 243 241 249 251 248 245 240 242 245 247 222 215 209 197 209 209 210 206 201 188 174 163 158 155 153 144 129 112 105 112 110 125 134 132 136 137 132 119 122 130 139 144 137 277 77 79 72 56 25 55 43 17 30 55 60 53 42 35 25 23 15 2 356 347 335 331 333 335 337 336 337 337 336 331 327 329
275 286 285 274 271 270 264 268 268 264 262 260 246 243 241 240 241 239 237 237 243 219 200 190 197 215 214 205 204 204 179 168 162 161 155 147 152 158 151 157 165 152 143 131 131 142 137 130 129 129 166 153 248 150 101 101 98 77 45 57 53 47 32 63 80 72 62 48 38 30 11 3 354 348 336 342 349 353 344 336 331 332 332 327 326 330 332
307 300 294 292 283 274 271 262 263 269 267 260 259 256 249 238 232 234 237 235 240 225 204 200 200 204 211 211 204 157 154 163 161 163 168 170 168 162 153 149 159 152 150 147 149 140 134 139 146 149 160 178 172 143 132 118 104 99 80 90 70 62 53 64 66 82 74 62 47 28 5 349 349 351 351 356 351 342 335 330 327 330 331 331 337 338 333
309 309 307 305 301 296 285 280 272 266 267 267 260 255 254 249 241 243 243 236 230 224 213 210 216 218 195 153 149 154 159 153 149 144 114 64 100 125 139 147 160 165 158 141 135 129 143 147 150 157 173 165 162 159 137 124 127 126 114 90 89 89 74 68 73 77 80 78 58 26 360 347 359 356 352 351 346 341 336 333 327 327 329 333 334 329 325
312 311 309 309 307 302 298 292 280 272 267 267 261 255 253 251 243 238 235 234 234 231 221 218 210 200 171 166 161 160 158 152 147 147 142 141 118 50 129 149 149 166 162 136 138 140 150 155 157 184 180 174 180 158 138 146 154 156 157 129 105 93 77 80 78 84 68 41 41 28 13 11 3 352 354 347 338 337 334 330 326 325 327 329 328 329 327
318 320 320 314 308 302 293 286 280 275 271 272 279 274 255 252 250 242 236 234 230 227 219 211 203 189 177 175 177 174 169 167 163 159 155 155 142 114 130 162 157 167 158 150 144 151 154 157 182 187 193 177 175 160 149 159 171 170 170 152 138 123 116 113 98 82 55 61 21 15 16 9 356 353 350 337 338 335 332 329 329 333 332 329 328 332 332
326 329 327 321 316 308 296 287 286 289 284 280 280 279 267 249 251 246 232 228 232 231 215 204 198 189 175 159 127 119 124 129 134 104 103 127 152 164 170 171 174 168 157 156 143 154 164 184 182 178 183 178 176 156 156 177 181 181 165 167 168 172 161 172 158 159 180 210 280 274 249 262 321 309 317 339 343 337 332 334 330 329 326 325 327 331 330
328 333 336 331 325 321 317 311 302 298 303 314 306 295 296 291 264 250 237 224 217 219 211 198 190 174 160 150 144 139 130 117 104 99 123 133 118 139 163 168 168 166 159 154 161 166 171 187 187 187 192 189 162 152 171 177 183 177 182 177 185 188 183 189 190 192 213 210 243 299 307 303 280 266 299 323 321 336 337 333 335 332 329 331 329 331 331
338 337 339 340 334 332 333 331 316 300 338 298 269 284 299 299 289 282 241 213 191 143 120 100 93 108 136 142 146 148 149 146 144 142 117 130 145 154 152 159 166 171 165 166 168 178 185 189 194 194 197 196 162 164 175 181 179 188 180 192 194 199 201 170 203 208 209 222 235 227 220 237 248 252 256 261 281 303 314 325 326 329 329 328 328 328 327
321 322 328 330 333 336 335 328 320 339 323 301 335 327 340 0 16 83 106 104 118 115 114 111 111 103 93 98 103 105 114 124 133 152 158 135 157 158 158 163 172 170 154 152 172 186 196 199 201 201 204 198 163 177 173 187 186 190 190 194 200 200 200 202 202 195 211 224 234 231 237 238 248 230 243 252 265 276 293 303 305 308 315 321 321 320 319
319 336 344 344 346 346 339 332 329 317 308 352 12 335 335 310 84 95 129 120 108 110 107 114 117 121 121 120 109 107 99 84 69 87 117 141 154 148 150 151 165 167 160 165 180 192 210 208 209 210 211 185 172 177 177 188 191 198 194 199 197 201 206 204 208 205 208 222 232 239 242 240 231 239 260 272 281 294 298 300 302 301 306 309 305 302 301
320 337 324 328 331 335 343 346 325 285 1 34 345 359 8 48 103 119 104 105 100 99 97 91 73 86 101 105 110 116 118 101 100 129 117 129 150 154 155 161 174 173 168 176 188 195 199 211 208 209 207 189 187 186 185 195 199 207 205 197 201 196 198 207 209 214 212 217 221 231 241 243 239 241 238 245 268 280 285 292 295 299 300 298 293 290 289
287 275 284 297 313 346 355 359 3 32 53 46 11 3 10 54 66 76 92 105 101 113 116 111 103 78 88 113 126 130 144 154 153 146 151 153 179 183 179 176 180 192 185 185 195 198 195 203 209 207 202 200 200 204 211 212 206 208 212 209 204 205 205 207 207 212 215 224 227 232 236 236 237 245 248 245 258 272 279 285 289 290 291 292 288 286 284